User: anonymous
Location: Unspecified
(0.0000°N, 0.0000°E)
Time: 20:30:19
(UTC+00:00)
Language:

TECSAR - Orbit

View from above orbital plane
View from above orbital plane
View from above satellite
View from above satellite

Ground track
Ground track

The orbit data is extracted from the following two-line orbital elements,

1 32476U 08002A   14205.05987594 0.00010000  00000-0  25291-3 0    07
2 32476  41.0366 165.5490 0003011   7.6415 352.3579 15.38900660    04
Epoch (UTC): 24 July 2014 01:26:13
Eccentricity: 0.0003011
inclination: 41.0366°
perigee height: 447 km
apogee height: 451 km
right ascension of ascending node: 165.5490°
argument of perigee: 7.6415°
revolutions per day: 15.38900660
mean anomaly at epoch: 352.3579°
orbit number at epoch: 0

The dashed part of the orbit path shows where the satellite is in the earth's shadow,  

DLR